Location: Litvinovka
(48.6667°N, 34.3500°E)
Time: 03:05:23
(UTC+00:00)

SJ-11-01 - Pass Details

Date: 18 September 2020
Orbit: 684 x 701 km, 98.0° (Epoch: 22 October)

Event Time Altitude Azimuth Distance (km) Brightness Sun altitude
Rises 16:24:53 0° 158° (SSE) 3,068 7.3 -6.8°
Reaches altitude 10° 16:27:08 10° 157° (SSE) 2,152 6.5 -7.2°
Maximum altitude 16:31:50 72° 73° (ENE) 733 4.3 -7.9°
Drops below altitude 10° 16:36:33 10° 350° (N) 2,158 7.1 -8.7°
Sets 16:38:48 0° 349° (NNW) 3,076 8.0 -9.1°
